Date String (YYYY-MM-DD hh:mm:ss) UTC,Instrument flags,absolute air pressure of the measurement (hPa),sample flow rate (lpm),inlet stack bypass flow (lpm),air temperature of the measurement (°C),ambient temperature measured by the external sensor (°C),aerosol sample conditioner tube jacket temperature (°C),OPC LED temperature (°C),internal box temperature (°C),relative humidity of the measurement (%),span deviation,mass concentration of particles derived from Lorenz-Mie calculation of OPC scattering (μg/m³),mass concentration of particles derived from Lorenz-Mie calculation of OPC scattering (μg/m³),mass concentration of particles derived from Lorenz-Mie calculation of OPC scattering (μg/m³)
DateTimeUTC,F1_M11,P_M11,Q1_M11,Q2_M11,T1_M11,T2_M11,T3_M11,T4_M11,T5_M11,U1_M11,ZSPAN_M11,X2_M11,X0_M11,X1_M11
2023-11-07 20:00:00,SystemResetWarning,0820.2,5.01,000.00,027.7,026.2,000.0,035.9,029.2,7.9,0000.0,0003.34,0009.27,0002.26
2023-11-07 20:01:00,SystemResetWarning,0820.3,5.00,000.00,027.7,026.4,000.0,035.9,029.3,7.8,0000.0,0003.33,0008.80,0002.24
2023-11-07 20:02:00,SystemResetWarning,0820.3,4.99,000.00,027.8,026.6,000.0,035.9,029.4,7.8,0000.0,0003.34,0008.99,0002.22
2023-11-07 20:03:00,SystemResetWarning,0820.3,4.99,000.00,027.8,026.8,000.0,035.9,029.5,7.8,0000.0,0003.32,0009.40,0002.19
2023-11-07 20:04:00,SystemResetWarning,0820.4,5.00,000.00,027.9,026.9,000.0,036.0,029.6,7.7,0000.0,0003.30,0010.64,0002.16
2023-11-07 20:05:00,SystemResetWarning,0820.5,5.00,000.00,027.9,027.1,000.0,036.0,029.6,7.8,0000.0,0003.31,0010.76,0002.14
2023-11-07 20:06:00,SystemResetWarning,0820.9,5.00,000.00,028.0,027.0,000.0,036.0,029.7,8.0,0000.0,0003.29,0011.13,0002.12
2023-11-07 20:07:00,SystemResetWarning,0820.4,5.01,000.00,028.0,025.4,000.0,036.0,029.5,8.0,0000.0,0003.31,0012.52,0002.10
2023-11-07 20:08:00,SystemResetWarning,0820.3,5.00,000.00,027.9,023.9,000.0,035.9,029.1,7.9,0000.0,0003.35,0013.28,0002.09
2023-11-07 20:09:00,SystemResetWarning,0820.3,5.01,000.00,027.8,023.9,000.0,035.9,028.9,8.0,0000.0,0003.40,0013.96,0002.10
2023-11-07 20:10:00,SystemResetWarning,0820.2,5.01,000.00,027.6,024.4,000.0,035.9,028.7,7.9,0000.0,0003.42,0014.78,0002.09
2023-11-07 20:11:00,SystemResetWarning,0820.4,4.99,000.00,027.6,024.8,000.0,035.9,028.7,7.9,0000.0,0003.46,0014.72,0002.09
2023-11-07 20:12:00,SystemResetWarning,0820.3,5.00,000.00,027.5,025.2,000.0,035.8,028.9,7.8,0000.0,0003.48,0014.40,0002.09
2023-11-07 20:13:00,SystemResetWarning,0820.2,5.00,000.00,027.6,025.6,000.0,035.8,029.0,7.9,0000.0,0003.45,0014.18,0002.10
2023-11-07 20:14:00,SystemResetWarning,0820.1,5.01,000.00,027.6,025.9,000.0,035.8,029.1,8.0,0000.0,0003.42,0013.71,0002.11
2023-11-07 20:15:00,SystemResetWarning,0820.2,5.01,000.00,027.6,026.2,000.0,035.8,029.2,7.9,0000.0,0003.41,0012.51,0002.11
2023-11-07 20:16:00,SystemResetWarning,0820.2,4.99,000.00,027.7,026.4,000.0,035.9,029.3,7.9,0000.0,0003.40,0012.69,0002.10
2023-11-07 20:17:00,SystemResetWarning,0820.2,5.00,000.00,027.7,026.6,000.0,035.9,029.4,7.7,0000.0,0003.39,0012.59,0002.11
2023-11-07 20:18:00,SystemResetWarning,0820.2,5.00,000.00,027.8,026.8,000.0,035.9,029.4,7.6,0000.0,0003.39,0011.38,0002.12
2023-11-07 20:19:00,SystemResetWarning,0820.1,5.00,000.00,027.8,026.9,000.0,035.9,029.5,7.5,0000.0,0003.35,0010.51,0002.12
2023-11-07 20:20:00,SystemResetWarning,0820.2,5.00,000.00,027.9,027.1,000.0,035.9,029.6,7.5,0000.0,0003.32,0010.52,0002.11
2023-11-07 20:21:00,SystemResetWarning,0820.1,4.99,000.00,028.0,026.9,000.0,036.0,029.7,7.7,0000.0,0003.28,0010.27,0002.09
2023-11-07 20:22:00,SystemResetWarning,0820.1,5.00,000.00,027.9,025.2,000.0,036.0,029.4,7.9,0000.0,0003.23,0009.91,0002.08
2023-11-07 20:23:00,SystemResetWarning,0820.1,5.00,000.00,027.8,023.8,000.0,035.9,029.1,8.2,0000.0,0003.16,0010.73,0002.06
2023-11-07 20:24:00,SystemResetWarning,0820.0,5.01,000.00,027.7,023.9,000.0,035.9,028.9,8.2,0000.0,0003.22,0011.54,0002.09
2023-11-07 20:25:00,SystemResetWarning,0820.1,5.01,000.00,027.6,024.3,000.0,035.8,028.6,8.1,0000.0,0003.31,0012.07,0002.13
2023-11-07 20:26:00,SystemResetWarning,0820.2,4.99,000.00,027.5,024.8,000.0,035.8,028.7,8.1,0000.0,0003.39,0012.84,0002.17
2023-11-07 20:27:00,SystemResetWarning,0820.1,5.00,000.00,027.5,025.2,000.0,035.8,028.8,8.2,0000.0,0003.44,0012.89,0002.20
2023-11-07 20:28:00,SystemResetWarning,0820.2,5.00,000.00,027.5,025.5,000.0,035.8,029.0,8.3,0000.0,0003.50,0012.71,0002.22
2023-11-07 20:29:00,SystemResetWarning,0820.2,5.01,000.00,027.6,025.9,000.0,035.8,029.1,8.3,0000.0,0003.53,0012.27,0002.25
2023-11-07 20:30:00,SystemResetWarning,0820.2,5.01,000.00,027.6,026.1,000.0,035.8,029.2,8.0,0000.0,0003.56,0012.41,0002.27
2023-11-07 20:31:00,SystemResetWarning,0820.2,4.99,000.00,027.6,026.4,000.0,035.8,029.3,8.0,0000.0,0003.58,0012.67,0002.31
2023-11-07 20:32:00,SystemResetWarning,0820.1,5.00,000.00,027.7,026.6,000.0,035.8,029.4,8.1,0000.0,0003.56,0012.44,0002.35
2023-11-07 20:33:00,SystemResetWarning,0820.0,5.00,000.00,027.8,026.7,000.0,035.8,029.4,8.3,0000.0,0003.59,0013.79,0002.39
2023-11-07 20:34:00,SystemResetWarning,0820.1,5.00,000.00,027.8,026.9,000.0,035.9,029.5,8.4,0000.0,0003.68,0013.52,0002.43
2023-11-07 20:35:00,SystemResetWarning,0820.2,5.00,000.00,027.9,027.0,000.0,035.9,029.6,8.2,0000.0,0003.69,0013.02,0002.45
2023-11-07 20:36:00,SystemResetWarning,0820.2,5.00,000.00,027.9,026.9,000.0,035.9,029.6,8.3,0000.0,0003.70,0013.46,0002.48
2023-11-07 20:37:00,SystemResetWarning,0820.1,4.98,000.00,027.9,025.2,000.0,035.9,029.3,8.4,0000.0,0003.69,0013.61,0002.53
2023-11-07 20:38:00,SystemResetWarning,0820.4,5.01,000.00,027.8,023.8,000.0,035.9,029.0,8.3,0000.0,0003.69,0014.01,0002.58
2023-11-07 20:39:00,SystemResetWarning,0820.2,5.01,000.00,027.7,024.0,000.0,035.8,028.8,8.4,0000.0,0003.76,0014.63,0002.65
2023-11-07 20:40:00,SystemResetWarning,0820.1,4.99,000.00,027.5,024.4,000.0,035.8,028.6,8.8,0000.0,0003.79,0015.39,0002.70
2023-11-07 20:41:00,SystemResetWarning,0820.0,4.99,000.00,027.5,024.8,000.0,035.8,028.7,9.3,0000.0,0003.86,0016.67,0002.77
2023-11-07 20:42:00,SystemResetWarning,0820.1,5.02,000.00,027.5,025.2,000.0,035.8,028.8,9.8,0000.0,0003.99,0016.43,0002.90
2023-11-07 20:43:00,SystemResetWarning,0820.1,5.00,000.00,027.5,025.6,000.0,035.7,028.9,9.8,0000.0,0004.22,0018.43,0003.08
2023-11-07 20:44:00,SystemResetWarning,0820.2,4.98,000.00,027.5,025.9,000.0,035.8,029.1,9.7,0000.0,0004.48,0018.25,0003.26
2023-11-07 20:45:00,SystemResetWarning,0820.2,5.00,000.00,027.6,026.1,000.0,035.8,029.2,9.7,0000.0,0004.77,0019.75,0003.46
2023-11-07 20:46:00,SystemResetWarning,0820.2,5.00,000.00,027.6,026.4,000.0,035.8,029.2,9.6,0000.0,0004.97,0021.62,0003.64
2023-11-07 20:47:00,SystemResetWarning,0820.0,5.01,000.00,027.7,026.6,000.0,035.8,029.3,9.5,0000.0,0005.14,0023.12,0003.79
2023-11-07 20:48:00,SystemResetWarning,0820.1,5.00,000.00,027.7,026.7,000.0,035.8,029.4,9.3,0000.0,0005.41,0024.00,0003.94
2023-11-07 20:49:00,SystemResetWarning,0820.1,5.00,000.00,027.8,026.9,000.0,035.9,029.5,9.2,0000.0,0005.66,0025.71,0004.09
2023-11-07 20:50:00,SystemResetWarning,0820.1,4.99,000.00,027.8,027.0,000.0,035.9,029.6,9.0,0000.0,0005.80,0027.36,0004.21
2023-11-07 20:51:00,SystemResetWarning,0820.2,5.00,000.00,027.9,027.1,000.0,035.9,029.6,9.2,0000.0,0005.95,0028.26,0004.31
2023-11-07 20:52:00,SystemResetWarning,0820.3,5.00,000.00,028.0,027.2,000.0,036.0,029.7,9.2,0000.0,0006.09,0027.58,0004.41
2023-11-07 20:53:00,SystemResetWarning,0820.1,5.00,000.00,028.0,026.2,000.0,036.0,029.6,8.9,0000.0,0006.17,0029.16,0004.47
2023-11-07 20:54:00,SystemResetWarning,0820.0,5.00,000.00,027.9,024.2,000.0,035.9,029.2,8.8,0000.0,0006.16,0029.09,0004.51
2023-11-07 20:55:00,SystemResetWarning,0820.0,5.01,000.00,027.8,023.7,000.0,035.9,029.0,8.8,0000.0,0006.08,0028.54,0004.49
2023-11-07 20:56:00,SystemResetWarning,0820.1,5.01,000.00,027.6,024.1,000.0,035.8,028.7,8.9,0000.0,0006.00,0027.94,0004.42
2023-11-07 20:57:00,SystemResetWarning,0820.1,4.99,000.00,027.5,024.5,000.0,035.8,028.6,8.7,0000.0,0005.98,0028.84,0004.37
2023-11-07 20:58:00,SystemResetWarning,0820.1,4.99,000.00,027.5,025.0,000.0,035.8,028.8,8.8,0000.0,0006.03,0029.32,0004.32
2023-11-07 20:59:00,SystemResetWarning,0819.9,5.01,000.00,027.5,025.4,000.0,035.8,028.9,8.9,0000.0,0005.89,0029.60,0004.24
